Regional Weather Roundup
Issued by NWS

Home | Current Version | Previous Version | Graphics & Text | Print | Product List | Glossary On
Versions: 1 2 3 4 5 6 7 8 9 10 11 12 13 14 15 16 17 18 19 20 21 22 23 24 25 26 27 28 29 30 31 32 33 34 35 36 37 38 39 40 41 42 43 44 45 46 47 48 49 50
000
ASUS43 KLOT 242308
RWRIL

ILLINOIS REGIONAL WEATHER ROUNDUP
NATIONAL WEATHER SERVICE CHICAGO/ROMEOVILLE IL
600 PM CDT MON APR 24 2017

NOTE: "FAIR" INDICATES FEW OR NO CLOUDS BELOW 12,000 FEET WITH NO
SIGNIFICANT WEATHER AND/OR OBSTRUCTIONS TO VISIBILITY.

* THESE STATIONS ARE NOT UNDER NWS QUALITY CONTROL. THEY ALSO MAY NOT
  REPORT WEATHER SUCH AS PRECIPITATION OR FOG.

ILZ001-002-007-009-015-016-024-250000-
NORTHWEST ILLINOIS

CITY           SKY/WX    TMP DP  RH WIND       PRES   REMARKS
MOLINE         SUNNY     75  27  17 SE21G32   29.68F
STERLING*      CLOUDY    76  26  15 SE12G18   29.74F
SAVANNA*       MOSUNNY   76  22  13 S21G28    29.70F
$$

ILZ003-004-008-010-011-017-018-250000-
NORTH CENTRAL ILLINOIS

CITY           SKY/WX    TMP DP  RH WIND       PRES   REMARKS
ROCKFORD       PTSUNNY   73  32  22 SE12      29.78F
FREEPORT*      CLOUDY    71  29  20 SE16G23   29.76F
ROCHELLE*      SUNNY     73  29  20 SE17G25   29.78F
DE KALB*       MOSUNNY   71  30  21 SE14      29.79F
PERU*          SUNNY     74  25  16 SE13      29.77S
$$

ILZ005-006-012>014-019>023-250000-
NORTHEAST ILLINOIS

CITY           SKY/WX    TMP DP  RH WIND       PRES   REMARKS
CHICAGO-OHARE  CLOUDY    70  29  21 E10       29.81F
CHICAGO-MIDWAY CLOUDY    68  31  25 NE10      29.81F
AURORA         CLOUDY    73  29  19 SE15      29.79F
LANSING*       SUNNY     67  42  39 N7        29.81F
JOLIET*        CLOUDY    74  31  21 E9        29.79F
WAUKEGAN       MOSUNNY   61  34  36 E8        29.83F
DUPAGE AIRPORT CLOUDY    72  33  24 E12       29.79F
KANKAKEE*      SUNNY     74  28  18 E16       29.79F
WHEELING       MOSUNNY   65  33  30 E7        29.83F
MORRIS*        CLOUDY    75  22  13 SE10G17   29.77F
ROMEOVILLE*    CLOUDY    72  39  30 E10       29.79F
NORTHERLY ISL    N/A     58  35  42 MISG        N/A
$$

LMZ740>746-250000-
SOUTHERN LAKE MICHIGAN

STATION/POSITION SKY/WX   TEMP    WIND        PRES    VSBY  WAVE
                          AIR SEA DIR/SP/G                  HT/PER
                          (F)     (DEG/KT/KT) (MB)    (MI)  (FT/S)
SOUTHERN BUOY              48 43   30/  6/  6 1011.8          1/ 5
HARRISON CRIB              53      10/  6/  7   N/A
BURNHAM HARBOR             58      10/  6/  8   N/A
CALUMET HARBOR             56      10/  6/  8 1009.5F
BURNS HARBOR               58      50/  5/  8 1010.2F
MICHIGAN CITY              72     120/ 13/ 16   N/A
ST. JOSEPH                 65 52  140/ 10/ 14 1010.0          1/ 2
$$

ILZ025>027-034>036-040-047-049-050-058-095>099-250000-
WEST-CENTRAL ILLINOIS

CITY           SKY/WX    TMP DP  RH WIND       PRES   REMARKS
QUINCY         SUNNY     75  28  17 S17G23    29.70F
GALESBURG*     SUNNY     74  30  19 SE12      29.71F
MACOMB*        MOSUNNY   77  25  14 S14       29.73F
JACKSONVILLE*  SUNNY     75  27  16 SE9       29.74F
PITTSFIELD*    MOSUNNY   77  30  17 SE10G16   29.73F
$$

ILZ028>032-037-038-041>044-048-051>054-059>061-250000-
CENTRAL ILLINOIS

CITY           SKY/WX    TMP DP  RH WIND       PRES   REMARKS
PONTIAC        MOSUNNY   78  21  12 SE16      29.78S
BLOOMINGTON    SUNNY     74  29  19 SE16      29.77F
DECATUR        SUNNY     75  32  20 SE13      29.75F
PEORIA         SUNNY     75  23  14 SE10      29.74F
LACON*         SUNNY     75  26  16 SE13G18   29.74F
LINCOLN*       SUNNY     78  31  18 SE9       29.74F
SPRINGFIELD    SUNNY     77  30  17 SE8       29.74F
TAYLORVILLE    SUNNY     75  27  16 SE8       29.75S
$$

ILZ033-039-045-046-055>057-062-063-250000-
EAST-CENTRAL ILLINOIS

CITY           SKY/WX    TMP DP  RH WIND       PRES   REMARKS
CHAMPAIGN      SUNNY     76  27  16 E15       29.76F
RANTOUL*       SUNNY     78  28  16 E15       29.76F
MATTOON        SUNNY     74  33  22 E9        29.74F
PARIS*         SUNNY     76  38  24 SE9       29.77F
$$

ILZ079-100>102-250000-
SOUTHWEST ILLINOIS

CITY           SKY/WX    TMP DP  RH WIND       PRES   REMARKS
ALTON          MOSUNNY   73  36  25 E9        29.75F
BELLEVILLE     SUNNY     74  35  24 E6        29.73F
CAHOKIA*       SUNNY     76  31  19 SE10      29.74F
SPARTA*        SUNNY     73  38  28 SE5       29.76S
$$

ILZ064>066-069>071-074>076-080>082-084>086-088>090-092>094-250000-
SOUTH-CENTRAL ILLINOIS

CITY           SKY/WX    TMP DP  RH WIND       PRES   REMARKS
CARBONDALE     SUNNY     73  45  36 SE5       29.75F
CAIRO*         SUNNY     75  49  39 E8        29.74F
EFFINGHAM*     SUNNY     76  36  23 NE8       29.76F
MARION         MOSUNNY   75  45  33 E8        29.75F
MT. VERNON     SUNNY     75  38  26 E6        29.75F
CENTRALIA*     SUNNY     76  37  24 SE9       29.74F
SALEM*         SUNNY     76  29  17 E5        29.75F
METROPOLIS*    LGT RAIN  75  50  40 E6        29.76S
$$

ILZ067-068-072-073-078-083-087-091-250000-
SOUTHEAST ILLINOIS

CITY           SKY/WX    TMP DP  RH WIND       PRES   REMARKS
LAWRENCEVILLE  SUNNY     77  36  22 E3        29.75F
FLORA*         SUNNY     76  37  24 SE7       29.76S
FAIRFIELD*     SUNNY     75  38  25 CALM      29.74F
HARRISBURG*    SUNNY     74  46  37 NE5       29.75F
ROBINSON*      SUNNY     76  40  26 E10       29.76S
CARMI*         SUNNY     75  40  28 CALM      29.75S
$$

ABBREVIATIONS USED IN REMARKS
   TC - TEMPERATURE IN CELSIUS
  WCI - WIND CHILL INDEX
   HX - HEAT INDEX
  VSB - VISIBILITY
$$





USA.gov is the U.S. government's official web portal to all federal, state and local government web resources and services.